| time (UTC) | temp F | wind direction | speed knots | gust knots | rain 1hr in | rain 24hr in | rain mn in | humidity % | barometer mb |
| 20260902193007 | 80 | 202 | 7.8 | 13.9 | 0.00 | 0.00 | 0.00 | 32 | 999.1 |
| 20260902191506 | 81 | 194 | 9.6 | 14.8 | 0.00 | 0.00 | 0.00 | 31 | 999.2 |
| 20260902190004 | 80 | 184 | 6.1 | 13.9 | 0.00 | 0.00 | 0.00 | 32 | 999.5 |
| 20260902184600 | 80 | 227 | 6.1 | 13.9 | 0.00 | 0.00 | 0.00 | 34 | 999.6 |
| 20260902183058 | 79 | 171 | 7.8 | 18.2 | 0.00 | 0.00 | 0.00 | 34 | 999.9 |
| 20260902181605 | 80 | 181 | 7.8 | 15.6 | 0.00 | 0.00 | 0.00 | 33 | 1000.0 |
| 20260902180113 | 79 | 204 | 7.8 | 15.6 | 0.00 | 0.00 | 0.00 | 35 | 1000.2 |
| 20260902174555 | 79 | 191 | 7.0 | 14.8 | 0.00 | 0.00 | 0.00 | 37 | 1000.4 |
| 20260902173048 | 77 | 207 | 7.8 | 13.9 | 0.00 | 0.00 | 0.00 | 37 | 1000.6 |
| 20260902171545 | 76 | 227 | 7.8 | 15.6 | 0.00 | 0.00 | 0.00 | 38 | 1000.8 |
| 20260902170041 | 75 | 184 | 8.7 | 11.3 | 0.00 | 0.00 | 0.00 | 40 | 1000.7 |
| 20260902164538 | 73 | 159 | 3.5 | 9.6 | 0.00 | 0.00 | 0.00 | 43 | 1000.7 |
| 20260902163035 | 73 | 227 | 3.5 | 7.8 | 0.00 | 0.00 | 0.00 | 43 | 1000.7 |
| 20260902161533 | 72 | 223 | 4.3 | 12.2 | 0.00 | 0.00 | 0.00 | 43 | 1000.9 |
| 20260902160034 | 71 | 227 | 5.2 | 8.7 | 0.00 | 0.00 | 0.00 | 45 | 1001.1 |
| 20260902154527 | 70 | 229 | 3.5 | 8.7 | 0.00 | 0.00 | 0.00 | 46 | 1001.2 |
| 20260902153035 | 70 | 241 | 3.5 | 9.6 | 0.00 | 0.00 | 0.00 | 47 | 1001.3 |
| 20260902151524 | 70 | 227 | 3.5 | 7.8 | 0.00 | 0.00 | 0.00 | 47 | 1001.4 |
| 20260902150020 | 69 | 240 | 3.5 | 11.3 | 0.00 | 0.00 | 0.00 | 50 | 1001.6 |
| 20260902144528 | 68 | 199 | 4.3 | 8.7 | 0.00 | 0.00 | 0.00 | 51 | 1001.9 |
| 20260902143013 | 65 | 214 | 5.2 | 9.6 | 0.00 | 0.00 | 0.00 | 55 | 1002.0 |
| 20260902141509 | 61 | 199 | 4.3 | 6.1 | 0.00 | 0.00 | 0.00 | 59 | 1002.1 |
| 20260902140008 | 58 | 245 | 3.5 | 6.1 | 0.00 | 0.00 | 0.00 | 62 | 1002.1 |
| 20260902134512 | 58 | 247 | 2.6 | 6.1 | 0.00 | 0.00 | 0.00 | 62 | 1002.2 |
| 20260902133007 | 57 | 204 | 3.5 | 6.1 | 0.00 | 0.00 | 0.00 | 64 | 1002.3 |
| 20260902131506 | 55 | 123 | 1.7 | 4.3 | 0.00 | 0.00 | 0.00 | 67 | 1002.4 |
| 20260902130005 | 53 | 109 | 1.7 | 3.5 | 0.00 | 0.00 | 0.00 | 68 | 1002.4 |
| 20260902124506 | 54 | 274 | 0.0 | 0.0 | 0.00 | 0.00 | 0.00 | 67 | 1001.9 |
| 20260902123005 | 54 | 274 | 0.9 | 2.6 | 0.00 | 0.00 | 0.00 | 68 | 1001.8 |
| 20260902121501 | 53 | 101 | 1.7 | 5.2 | 0.00 | 0.00 | 0.00 | 69 | 1002.1 |
| 20260902120001 | 53 | 306 | 0.9 | 4.3 | 0.00 | 0.00 | 0.00 | 68 | 1002.0 |
| 20260902114600 | 54 | 296 | 0.9 | 4.3 | 0.00 | 0.00 | 0.00 | 68 | 1002.1 |
| 20260902113058 | 53 | 277 | 0.9 | 3.5 | 0.00 | 0.00 | 0.00 | 68 | 1002.2 |
| 20260902111557 | 53 | 269 | 0.9 | 2.6 | 0.00 | 0.00 | 0.00 | 68 | 1002.5 |
| 20260902110056 | 53 | 253 | 0.9 | 3.5 | 0.00 | 0.00 | 0.00 | 65 | 1002.4 |
| 20260902104554 | 55 | 227 | 0.9 | 4.3 | 0.00 | 0.00 | 0.00 | 64 | 1002.2 |
| 20260902103054 | 56 | 227 | 1.7 | 5.2 | 0.00 | 0.00 | 0.00 | 62 | 1002.3 |
| 20260902101551 | 56 | 194 | 3.5 | 5.2 | 0.00 | 0.00 | 0.00 | 60 | 1002.5 |
| 20260902100059 | 56 | 169 | 1.7 | 3.5 | 0.00 | 0.00 | 0.00 | 60 | 1002.6 |
| 20260902094601 | 53 | 192 | 2.6 | 4.3 | 0.00 | 0.00 | 0.00 | 66 | 1002.7 |
| 20260902093048 | 53 | 321 | 0.0 | 0.0 | 0.00 | 0.00 | 0.00 | 65 | 1002.6 |
| 20260902091555 | 52 | 321 | 0.0 | 0.0 | 0.00 | 0.00 | 0.00 | 65 | 1002.9 |
| 20260902090046 | 51 | 317 | 0.0 | 2.6 | 0.00 | 0.00 | 0.00 | 66 | 1002.9 |
| 20260902084544 | 51 | 299 | 0.9 | 3.5 | 0.00 | 0.00 | 0.00 | 65 | 1003.1 |
| 20260902083040 | 54 | 309 | 0.9 | 4.3 | 0.00 | 0.00 | 0.00 | 61 | 1003.0 |
| 20260902081536 | 56 | 273 | 2.6 | 4.3 | 0.00 | 0.00 | 0.00 | 56 | 1003.0 |
| 20260902080035 | 60 | 315 | 1.7 | 3.5 | 0.00 | 0.00 | 0.00 | 54 | 1002.7 |
| 20260902074535 | 58 | 45 | 1.7 | 3.5 | 0.00 | 0.00 | 0.00 | 56 | 1002.7 |
| 20260902073034 | 58 | 96 | 0.0 | 2.6 | 0.00 | 0.00 | 0.00 | 55 | 1002.8 |
| 20260902071530 | 56 | 96 | 0.0 | 0.0 | 0.00 | 0.00 | 0.00 | 58 | 1002.8 |
| 20260902070028 | 58 | 96 | 0.0 | 0.0 | 0.00 | 0.00 | 0.00 | 56 | 1002.8 |
| 20260902064527 | 57 | 108 | 0.0 | 0.0 | 0.00 | 0.00 | 0.00 | 56 | 1002.8 |
| 20260902063024 | 58 | 108 | 0.0 | 0.0 | 0.00 | 0.00 | 0.00 | 55 | 1002.9 |
| 20260902061539 | 59 | 108 | 0.0 | 0.0 | 0.00 | 0.00 | 0.00 | 52 | 1003.0 |
| 20260902060016 | 62 | 108 | 0.0 | 0.0 | 0.00 | 0.00 | 0.00 | 49 | 1003.1 |
| 20260902054516 | 64 | 108 | 0.0 | 0.0 | 0.00 | 0.00 | 0.00 | 46 | 1003.1 |
| 20260902053016 | 65 | 108 | 0.0 | 0.0 | 0.00 | 0.00 | 0.00 | 45 | 1003.1 |
| 20260902051514 | 66 | 108 | 0.0 | 0.0 | 0.00 | 0.00 | 0.00 | 44 | 1003.2 |
| 20260902050014 | 66 | 140 | 0.0 | 1.7 | 0.00 | 0.00 | 0.00 | 44 | 1003.2 |
| 20260902044513 | 66 | 149 | 0.0 | 2.6 | 0.00 | 0.00 | 0.00 | 44 | 1003.3 |
| 20260902043012 | 66 | 195 | 1.7 | 3.5 | 0.00 | 0.00 | 0.00 | 44 | 1003.3 |
| 20260902041512 | 67 | 167 | 0.0 | 3.5 | 0.00 | 0.00 | 0.00 | 43 | 1003.4 |
| 20260902040013 | 67 | 169 | 1.7 | 4.3 | 0.00 | 0.00 | 0.00 | 43 | 1003.5 |
| 20260902034513 | 68 | 164 | 0.0 | 4.3 | 0.00 | 0.00 | 0.00 | 41 | 1003.6 |
| 20260902033022 | 69 | 190 | 2.6 | 6.1 | 0.00 | 0.00 | 0.00 | 40 | 1003.6 |
| 20260902031511 | 70 | 192 | 4.3 | 7.0 | 0.00 | 0.00 | 0.00 | 39 | 1003.6 |
| 20260902030009 | 70 | 189 | 4.3 | 7.0 | 0.00 | 0.00 | 0.00 | 39 | 1003.5 |
| 20260902024509 | 70 | 175 | 4.3 | 6.1 | 0.00 | 0.00 | 0.00 | 38 | 1003.4 |
| 20260902023008 | 71 | 201 | 4.3 | 6.1 | 0.00 | 0.00 | 0.00 | 36 | 1003.4 |
| 20260902021522 | 74 | 179 | 0.0 | 1.7 | 0.00 | 0.00 | 0.00 | 30 | 1003.4 |
| 20260902020011 | 75 | 149 | 0.0 | 0.9 | 0.00 | 0.00 | 0.00 | 29 | 1003.4 |
| 20260902014507 | 77 | 149 | 0.0 | 1.7 | 0.00 | 0.00 | 0.00 | 27 | 1003.4 |
| 20260902013006 | 79 | 135 | 0.9 | 3.5 | 0.00 | 0.00 | 0.00 | 26 | 1003.5 |
| 20260902011505 | 81 | 134 | 2.6 | 7.0 | 0.00 | 0.00 | 0.00 | 25 | 1003.5 |
| 20260902010010 | 82 | 124 | 2.6 | 7.0 | 0.00 | 0.00 | 0.00 | 24 | 1003.4 |
| 20260902004512 | 82 | 117 | 3.5 | 7.8 | 0.00 | 0.00 | 0.00 | 23 | 1003.4 |
| 20260902003004 | 83 | 108 | 2.6 | 7.0 | 0.00 | 0.00 | 0.00 | 23 | 1003.5 |
| 20260902001503 | 83 | 136 | 3.5 | 7.0 | 0.00 | 0.00 | 0.00 | 23 | 1003.5 |
| 20260902000001 | 83 | 151 | 2.6 | 8.7 | 0.00 | 0.00 | 0.00 | 23 | 1003.7 |
| 20260901234601 | 84 | 117 | 4.3 | 9.6 | 0.00 | 0.00 | 0.00 | 21 | 1003.8 |
| 20260901233102 | 84 | 134 | 5.2 | 9.6 | 0.00 | 0.00 | 0.00 | 21 | 1003.9 |
| 20260901231558 | 84 | 124 | 5.2 | 9.6 | 0.00 | 0.00 | 0.00 | 22 | 1004.1 |
| 20260901230056 | 84 | 146 | 4.3 | 9.6 | 0.00 | 0.00 | 0.00 | 22 | 1004.3 |
| 20260901224557 | 82 | 134 | 3.5 | 8.7 | 0.00 | 0.00 | 0.00 | 23 | 1004.4 |
| 20260901223053 | 83 | 132 | 4.3 | 10.4 | 0.00 | 0.00 | 0.00 | 23 | 1004.6 |
| 20260901221551 | 84 | 119 | 5.2 | 10.4 | 0.00 | 0.00 | 0.00 | 22 | 1004.8 |
| 20260901220049 | 83 | 129 | 2.6 | 7.8 | 0.00 | 0.00 | 0.00 | 22 | 1004.9 |
| 20260901214552 | 82 | 155 | 4.3 | 9.6 | 0.00 | 0.00 | 0.00 | 22 | 1005.1 |
| 20260901213046 | 84 | 114 | 6.1 | 12.2 | 0.00 | 0.00 | 0.00 | 21 | 1005.3 |
| 20260901211545 | 84 | 176 | 5.2 | 13.9 | 0.00 | 0.00 | 0.00 | 23 | 1005.4 |
| 20260901210044 | 84 | 195 | 7.0 | 13.9 | 0.00 | 0.00 | 0.00 | 22 | 1005.4 |
| 20260901204539 | 83 | 106 | 6.1 | 11.3 | 0.00 | 0.00 | 0.00 | 24 | 1005.6 |
| 20260901203041 | 82 | 125 | 7.0 | 11.3 | 0.00 | 0.00 | 0.00 | 25 | 1005.9 |
| 20260901201532 | 80 | 107 | 6.1 | 7.8 | 0.00 | 0.00 | 0.00 | 26 | 1006.1 |
| 20260901200030 | 79 | 111 | 0.9 | 10.4 | 0.00 | 0.00 | 0.00 | 28 | 1006.3 |
| 20260901194529 | 79 | 210 | 1.7 | 7.0 | 0.00 | 0.00 | 0.00 | 28 | 1006.5 |
| 20260901193025 | 78 | 112 | 3.5 | 9.6 | 0.00 | 0.00 | 0.00 | 30 | 1006.8 |